| time (UTC) | temp C | wind direction | speed KPH | gust KPH | rain 1hr cm | rain 24hr cm | rain mn cm | humidity % | barometer mb |
| 20260502190533 | 21 | 227 | 4.8 | 9.7 | 0.00 | 0.00 | 0.00 | 21 | 1019.7 |
| 20260502185530 | 22 | 357 | 3.2 | 6.4 | 0.00 | 0.00 | 0.00 | 27 | 1019.8 |
| 20260502184528 | 20 | 296 | 3.2 | 6.4 | 0.00 | 0.00 | 0.00 | 30 | 1020.0 |
| 20260502183545 | 21 | 239 | 3.2 | 4.8 | 0.00 | 0.00 | 0.00 | 31 | 1020.1 |
| 20260502182522 | 20 | 100 | 1.6 | 4.8 | 0.00 | 0.00 | 0.00 | 31 | 1020.1 |
| 20260502181540 | 18 | 183 | 1.6 | 6.4 | 0.00 | 0.00 | 0.00 | 33 | 1020.3 |
| 20260502180537 | 19 | 335 | 1.6 | 4.8 | 0.00 | 0.00 | 0.00 | 33 | 1020.3 |
| 20260502163530 | 16 | 27 | 3.2 | 6.4 | 0.00 | 0.00 | 0.00 | 42 | 1020.7 |
| 20260502162527 | 16 | 258 | 3.2 | 6.4 | 0.00 | 0.00 | 0.00 | 44 | 1020.6 |
| 20260502161524 | 15 | 35 | 1.6 | 4.8 | 0.00 | 0.00 | 0.00 | 46 | 1020.5 |
| 20260502160521 | 15 | 23 | 3.2 | 6.4 | 0.00 | 0.00 | 0.00 | 45 | 1020.6 |
| 20260502151528 | 13 | 12 | 1.6 | 3.2 | 0.00 | 0.00 | 0.00 | 46 | 1020.6 |
| 20260502150525 | 13 | 15 | 1.6 | 4.8 | 0.00 | 0.00 | 0.00 | 45 | 1020.7 |
| 20260502130529 | 5 | 349 | 1.6 | 3.2 | 0.00 | 0.00 | 0.00 | 61 | 1020.3 |
| 20260502123546 | 6 | 128 | 0.0 | 1.6 | 0.00 | 0.00 | 0.00 | 51 | 1020.1 |
| 20260502122538 | 6 | 129 | 0.0 | 1.6 | 0.00 | 0.00 | 0.00 | 53 | 1019.9 |
| 20260502121535 | 6 | 132 | 1.6 | 1.6 | 0.00 | 0.00 | 0.00 | 55 | 1019.9 |
| 20260502120538 | 6 | 130 | 1.6 | 3.2 | 0.00 | 0.00 | 0.00 | 54 | 1019.8 |
| 20260502115530 | 6 | 119 | 1.6 | 3.2 | 0.00 | 0.00 | 0.00 | 56 | 1019.8 |
| 20260502114527 | 6 | 115 | 1.6 | 3.2 | 0.00 | 0.00 | 0.00 | 57 | 1019.7 |
| 20260502113524 | 5 | 114 | 1.6 | 3.2 | 0.00 | 0.00 | 0.00 | 61 | 1019.8 |
| 20260502112541 | 6 | 113 | 0.0 | 0.0 | 0.00 | 0.00 | 0.00 | 61 | 1020.0 |
| 20260502111537 | 6 | 114 | 1.6 | 1.6 | 0.00 | 0.00 | 0.00 | 58 | 1019.9 |
| 20260502110536 | 6 | 115 | 1.6 | 1.6 | 0.00 | 0.00 | 0.00 | 57 | 1019.9 |
| 20260502105531 | 6 | 114 | 0.0 | 1.6 | 0.00 | 0.00 | 0.00 | 61 | 1019.9 |
| 20260502104529 | 6 | 115 | 1.6 | 1.6 | 0.00 | 0.00 | 0.00 | 62 | 1019.9 |
| 20260502103526 | 6 | 124 | 1.6 | 3.2 | 0.00 | 0.00 | 0.00 | 62 | 1020.0 |
| 20260502102523 | 6 | 128 | 0.0 | 1.6 | 0.00 | 0.00 | 0.00 | 61 | 1020.0 |
| 20260502101543 | 6 | 129 | 0.0 | 0.0 | 0.00 | 0.00 | 0.00 | 60 | 1020.0 |
| 20260502100537 | 6 | 128 | 0.0 | 1.6 | 0.00 | 0.00 | 0.00 | 60 | 1020.0 |
| 20260502091522 | 6 | 162 | 0.0 | 1.6 | 0.00 | 0.00 | 0.00 | 62 | 1019.8 |
| 20260502090539 | 6 | 189 | 0.0 | 3.2 | 0.00 | 0.00 | 0.00 | 67 | 1020.0 |
| 20260502071528 | 8 | 129 | 0.0 | 0.0 | 0.00 | 0.00 | 0.00 | 56 | 1019.7 |
| 20260502070525 | 9 | 129 | 0.0 | 1.6 | 0.00 | 0.00 | 0.00 | 54 | 1019.7 |
| 20260502065542 | 9 | 129 | 0.0 | 0.0 | 0.00 | 0.00 | 0.00 | 53 | 1019.6 |
| 20260502064539 | 10 | 131 | 1.6 | 1.6 | 0.00 | 0.00 | 0.00 | 50 | 1019.5 |
| 20260502063536 | 9 | 148 | 1.6 | 1.6 | 0.00 | 0.00 | 0.00 | 51 | 1019.5 |
| 20260502062533 | 10 | 152 | 1.6 | 1.6 | 0.00 | 0.00 | 0.00 | 51 | 1019.5 |
| 20260502061610 | 10 | 154 | 1.6 | 1.6 | 0.00 | 0.00 | 0.00 | 48 | 1019.5 |
| 20260502060528 | 10 | 159 | 1.6 | 3.2 | 0.00 | 0.00 | 0.00 | 49 | 1019.4 |
| 20260502055524 | 10 | 154 | 1.6 | 3.2 | 0.00 | 0.00 | 0.00 | 52 | 1019.4 |
| 20260502054522 | 10 | 138 | 1.6 | 3.2 | 0.00 | 0.00 | 0.00 | 53 | 1019.4 |
| 20260502053539 | 10 | 122 | 1.6 | 3.2 | 0.00 | 0.00 | 0.00 | 51 | 1019.2 |
| 20260502052537 | 11 | 166 | 0.0 | 1.6 | 0.00 | 0.00 | 0.00 | 50 | 1019.2 |
| 20260502051533 | 11 | 160 | 1.6 | 3.2 | 0.00 | 0.00 | 0.00 | 49 | 1019.3 |
| 20260502050531 | 11 | 158 | 1.6 | 3.2 | 0.00 | 0.00 | 0.00 | 51 | 1019.2 |
| 20260502045528 | 11 | 125 | 1.6 | 1.6 | 0.00 | 0.00 | 0.00 | 53 | 1019.1 |
| 20260502044525 | 11 | 107 | 1.6 | 3.2 | 0.00 | 0.00 | 0.00 | 53 | 1019.2 |
| 20260502043523 | 11 | 122 | 1.6 | 3.2 | 0.00 | 0.00 | 0.00 | 55 | 1019.1 |
| 20260502042540 | 11 | 92 | 1.6 | 3.2 | 0.00 | 0.00 | 0.00 | 56 | 1019.1 |
| 20260502041538 | 11 | 110 | 1.6 | 3.2 | 0.00 | 0.00 | 0.00 | 56 | 1019.1 |
| 20260502040534 | 11 | 161 | 1.6 | 1.6 | 0.00 | 0.00 | 0.00 | 54 | 1018.9 |
| 20260502035532 | 12 | 168 | 1.6 | 1.6 | 0.00 | 0.00 | 0.00 | 53 | 1018.8 |
| 20260502034529 | 12 | 177 | 0.0 | 1.6 | 0.00 | 0.00 | 0.00 | 50 | 1018.7 |
| 20260502033527 | 12 | 172 | 1.6 | 1.6 | 0.00 | 0.00 | 0.00 | 45 | 1018.6 |
| 20260502032524 | 13 | 149 | 0.0 | 1.6 | 0.00 | 0.00 | 0.00 | 45 | 1018.4 |
| 20260502031623 | 13 | 251 | 0.0 | 1.6 | 0.00 | 0.00 | 0.00 | 42 | 1018.2 |
| 20260502030540 | 13 | 251 | 0.0 | 0.0 | 0.00 | 0.00 | 0.00 | 41 | 1018.1 |
| 20260502025536 | 13 | 251 | 0.0 | 0.0 | 0.00 | 0.00 | 0.00 | 40 | 1017.9 |
| 20260502024533 | 14 | 0.0 | 0.0 | 0.00 | 0.00 | 0.00 | 38 | 1017.9 | |
| 20260502023550 | 15 | 251 | 0.0 | 1.6 | 0.00 | 0.00 | 0.00 | 36 | 1017.9 |
| 20260502022527 | 16 | 251 | 0.0 | 0.0 | 0.00 | 0.00 | 0.00 | 34 | 1017.8 |
| 20260502021524 | 16 | 251 | 0.0 | 1.6 | 0.00 | 0.00 | 0.00 | 31 | 1017.7 |
| 20260502020521 | 17 | 259 | 1.6 | 3.2 | 0.00 | 0.00 | 0.00 | 31 | 1017.7 |
| 20260502015539 | 17 | 258 | 1.6 | 4.8 | 0.00 | 0.00 | 0.00 | 30 | 1017.6 |
| 20260502014536 | 18 | 263 | 3.2 | 6.4 | 0.00 | 0.00 | 0.00 | 29 | 1017.6 |
| 20260502013533 | 18 | 257 | 3.2 | 6.4 | 0.00 | 0.00 | 0.00 | 27 | 1017.6 |
| 20260502012532 | 19 | 272 | 3.2 | 11.3 | 0.00 | 0.00 | 0.00 | 25 | 1017.5 |
| 20260502011528 | 20 | 275 | 3.2 | 6.4 | 0.00 | 0.00 | 0.00 | 25 | 1017.5 |
| 20260502010526 | 20 | 257 | 3.2 | 9.7 | 0.00 | 0.00 | 0.00 | 22 | 1017.5 |
| 20260502005523 | 21 | 271 | 3.2 | 6.4 | 0.00 | 0.00 | 0.00 | 23 | 1017.7 |
| 20260502004541 | 21 | 259 | 3.2 | 9.7 | 0.00 | 0.00 | 0.00 | 23 | 1017.6 |
| 20260502003538 | 21 | 283 | 3.2 | 6.4 | 0.00 | 0.00 | 0.00 | 21 | 1017.6 |
| 20260502002534 | 20 | 286 | 4.8 | 12.9 | 0.00 | 0.00 | 0.00 | 22 | 1017.6 |
| 20260502001532 | 21 | 267 | 4.8 | 11.3 | 0.00 | 0.00 | 0.00 | 22 | 1017.7 |
| 20260502000529 | 21 | 257 | 3.2 | 6.4 | 0.00 | 0.00 | 0.00 | 21 | 1017.7 |
| 20260501235526 | 21 | 349 | 4.8 | 11.3 | 0.00 | 0.00 | 0.00 | 21 | 1017.8 |
| 20260501234543 | 21 | 238 | 4.8 | 11.3 | 0.00 | 0.00 | 0.00 | 22 | 1017.7 |
| 20260501233541 | 21 | 281 | 4.8 | 9.7 | 0.00 | 0.00 | 0.00 | 22 | 1017.9 |
| 20260501232537 | 21 | 284 | 4.8 | 12.9 | 0.00 | 0.00 | 0.00 | 22 | 1018.0 |
| 20260501231534 | 21 | 276 | 4.8 | 12.9 | 0.00 | 0.00 | 0.00 | 22 | 1018.1 |
| 20260501230555 | 21 | 268 | 6.4 | 16.1 | 0.00 | 0.00 | 0.00 | 20 | 1018.1 |
| 20260501225529 | 21 | 298 | 4.8 | 11.3 | 0.00 | 0.00 | 0.00 | 20 | 1018.2 |
| 20260501224527 | 21 | 265 | 4.8 | 12.9 | 0.00 | 0.00 | 0.00 | 21 | 1018.4 |
| 20260501223524 | 21 | 279 | 6.4 | 11.3 | 0.00 | 0.00 | 0.00 | 21 | 1018.4 |
| 20260501222541 | 20 | 286 | 6.4 | 17.7 | 0.00 | 0.00 | 0.00 | 22 | 1018.6 |
| 20260501221538 | 20 | 324 | 6.4 | 14.5 | 0.00 | 0.00 | 0.00 | 23 | 1018.7 |
| 20260501220535 | 21 | 272 | 4.8 | 9.7 | 0.00 | 0.00 | 0.00 | 22 | 1018.8 |
| 20260501215553 | 21 | 260 | 3.2 | 6.4 | 0.00 | 0.00 | 0.00 | 21 | 1018.8 |
| 20260501214550 | 19 | 332 | 3.2 | 6.4 | 0.00 | 0.00 | 0.00 | 24 | 1019.0 |
| 20260501213527 | 20 | 4 | 6.4 | 12.9 | 0.00 | 0.00 | 0.00 | 23 | 1019.2 |
| 20260501212525 | 20 | 296 | 4.8 | 11.3 | 0.00 | 0.00 | 0.00 | 24 | 1019.1 |
| 20260501211522 | 20 | 243 | 4.8 | 14.5 | 0.00 | 0.00 | 0.00 | 26 | 1019.2 |
| 20260501210602 | 20 | 287 | 6.4 | 14.5 | 0.00 | 0.00 | 0.00 | 24 | 1019.4 |
| 20260501205539 | 20 | 303 | 4.8 | 11.3 | 0.00 | 0.00 | 0.00 | 24 | 1019.4 |
| 20260501204534 | 20 | 269 | 6.4 | 16.1 | 0.00 | 0.00 | 0.00 | 24 | 1019.4 |
| 20260501203531 | 19 | 290 | 4.8 | 12.9 | 0.00 | 0.00 | 0.00 | 23 | 1019.4 |
| 20260501202529 | 19 | 285 | 6.4 | 12.9 | 0.00 | 0.00 | 0.00 | 24 | 1019.5 |
| 20260501201526 | 18 | 273 | 6.4 | 17.7 | 0.00 | 0.00 | 0.00 | 25 | 1019.4 |
| 20260501200524 | 18 | 293 | 8.0 | 17.7 | 0.00 | 0.00 | 0.00 | 24 | 1019.6 |
| 20260501195541 | 18 | 279 | 6.4 | 12.9 | 0.00 | 0.00 | 0.00 | 25 | 1019.5 |
| 20260501194558 | 19 | 299 | 6.4 | 17.7 | 0.00 | 0.00 | 0.00 | 24 | 1019.6 |
| 20260501193536 | 18 | 253 | 4.8 | 11.3 | 0.00 | 0.00 | 0.00 | 25 | 1019.7 |
| 20260501192533 | 19 | 289 | 4.8 | 11.3 | 0.00 | 0.00 | 0.00 | 23 | 1019.8 |
| 20260501191530 | 18 | 301 | 4.8 | 14.5 | 0.00 | 0.00 | 0.00 | 25 | 1019.9 |